Location: Boiro
(42.6475°N, 8.8834°W)
Time: 00:19:11
(UTC+01:00)

Tiros 1 - Pass Details

Date: 12 December 2021
Orbit: 629 x 664 km, 48.4° (Epoch: 18 January)

Event Time Altitude Azimuth Distance (km) Brightness Sun altitude
Rises 19:46:36 0° 283° (WNW) 2,919 11.6 -18.5°
Reaches altitude 10° 19:49:02 10° 291° (WNW) 2,015 10.5 -18.9°
Maximum altitude 19:53:25 40° 2° (N) 938 7.8 -19.7°
Enters shadow 19:54:21 36° 31° (NNE) 1,015 7.8 -19.8°
Drops below altitude 10° 19:57:49 10° 72° (ENE) 2,031 - -20.5°
Sets 20:00:17 0° 80° (E) 2,946 - -20.9°
